Weatherford, Texas, United States (76085)
Lat: 32.76N, Lon: 97.8W
Wx Zone: TXZ117
Local Info
Past Weather Observations for Monday, July 28, 2014

NOTE: This archive is for the closest National Weather Service station to Weatherford. Information may differ from the station used for current weather conditions.

Click here for Long-term Archive

Time Weather Temperature Dewpoint Humidity Pressure Winds Precip Visibility
23:53
Mostly Cloudy
75°F / 24°C 63°F / 17°C 65% 30.12 in
(1020 mb)
NE 5.8 mph
(NE 9 kph)
- 10SM
22:53
Partly Cloudy
75°F / 24°C 63°F / 17°C 65% 30.12 in
(1020 mb)
NE 5.8 mph
(NE 9 kph)
- 10SM
21:53
Clear
79°F / 26°C 61°F / 16°C 54% 30.12 in
(1020 mb)
NE 5.8 mph
(NE 9 kph)
- 10SM
20:53
Clear
81°F / 27°C 61°F / 16°C 51% 30.12 in
(1020 mb)
NE 8.1 mph
(NE 13 kph)
- 10SM
19:53
Clear
82°F / 28°C 55°F / 13°C 40% 30.09 in
(1019 mb)
ENE 8.1 mph
(ENE 13 kph)
- 10SM
18:53
Clear
86°F / 30°C 52°F / 11°C 31% 30.06 in
(1018 mb)
E 10.4 mph
(E 17 kph)
- 10SM
17:53
Clear
91°F / 33°C 54°F / 12°C 28% 30.09 in
(1019 mb)
NE 11.5 mph
(NE 19 kph)
- 10SM
16:53
Clear
91°F / 33°C 59°F / 15°C 34% 30.09 in
(1019 mb)
NE 12.7 mph
(NE 20 kph)
- 10SM
15:53
Clear
91°F / 33°C 57°F / 14°C 32% 30.12 in
(1020 mb)
NE 21.9 mph
(NE 35 kph)
- 10SM
14:53
Clear
91°F / 33°C 64°F / 18°C 41% 30.12 in
(1020 mb)
NE 18.4 mph
(NE 30 kph)
- 10SM
13:53
Partly Cloudy
93°F / 34°C 66°F / 19°C 41% 30.15 in
(1021 mb)
NNE 15 mph
(NNE 24 kph)
- 10SM
12:53
Mostly Cloudy
91°F / 33°C 64°F / 18°C 41% 30.15 in
(1021 mb)
NNE 17.3 mph
(NNE 28 kph)
- 10SM
11:53
Clear
91°F / 33°C 66°F / 19°C 44% 30.15 in
(1021 mb)
NNE 11.5 mph
(NNE 19 kph)
- 10SM
10:53
Partly Cloudy
90°F / 32°C 66°F / 19°C 46% 30.15 in
(1021 mb)
NE 10.4 mph
(NE 17 kph)
- 10SM
09:53
Clear
90°F / 32°C 70°F / 21°C 52% 30.15 in
(1021 mb)
NE 12.7 mph
(NE 20 kph)
- 10SM
08:53
Clear
88°F / 31°C 72°F / 22°C 59% 30.15 in
(1021 mb)
ENE 12.7 mph
(ENE 20 kph)
- 10SM
07:53
Partly Cloudy
86°F / 30°C 70°F / 21°C 59% 30.12 in
(1020 mb)
ENE 4.6 mph
(ENE 7 kph)
- 10SM
06:53
Clear
81°F / 27°C 68°F / 20°C 66% 30.12 in
(1020 mb)
NE 5.8 mph
(NE 9 kph)
- 10SM
05:53
Overcast
77°F / 25°C 68°F / 20°C 74% 30.06 in
(1018 mb)
SE 4.6 mph
(SE 7 kph)
- 10SM
04:53
Clear
75°F / 24°C 66°F / 19°C 74% 30.06 in
(1018 mb)
SE 5.8 mph
(SE 9 kph)
- 10SM
03:53
Mostly Cloudy
75°F / 24°C 66°F / 19°C 74% 30.06 in
(1018 mb)
SE 4.6 mph
(SE 7 kph)
- 10SM
02:53
Clear
79°F / 26°C 66°F / 19°C 65% 30.04 in
(1017 mb)
SSE 4.6 mph
(SSE 7 kph)
- 10SM
01:53
Clear
81°F / 27°C 64°F / 18°C 58% 30.04 in
(1017 mb)
SE 3.5 mph
(SE 6 kph)
- 10SM
00:53
Clear
81°F / 27°C 64°F / 18°C 58% 30.04 in
(1017 mb)
SE 9.2 mph
(SE 15 kph)
- 10SM
Time Weather Temperature Dewpoint Humidity Pressure Winds Precip Visibility


Weather for websites

WeatherForYou.com, LLC is not responsible for any damages or problems caused by this service. Current weather conditions are obtained from the closest station including government and personal stations which may have varying degrees of accuracy. Weather forecasts are derived from the NOAA NDFD. Like all things, this site belongs to Jesus Christ... He just trusts me to maintain it. If you have any questions or comments email webmaster@weatherforyou.com

Copyright © 2014, WeatherForYou.com LLC. All rights reserved.